Location: Brachbach
(49.1847°N, 9.7240°E)
Time: 23:10:11
(UTC+00:00)

AO-85 - Visible Passes

Search period start: 13 March 2026 00:00
Search period end: 23 March 2026 00:00
Orbit: 507 x 687 km, 64.8° (Epoch: 13 March)

Date Brightness Start Highest point End Pass type
(mag) Time Alt. Az. Time Alt. Az. Time Alt. Az.
13 Mar ? 03:44:57 13° S 03:48:03 31° ESE 03:51:34 10° ENE visible
14 Mar ? 03:55:24 19° SSW 03:58:02 55° SE 04:01:52 10° NE visible
15 Mar ? 02:29:00 12° ESE 02:29:17 12° ESE 02:30:53 10° E visible
15 Mar ? 04:05:41 23° SW 04:08:05 86° NW 04:12:00 10° NE visible
16 Mar ? 02:39:11 21° ESE 02:39:11 21° ESE 02:42:05 10° ENE visible
16 Mar ? 04:15:52 22° WSW 04:18:13 51° NW 04:22:01 10° NNE visible
17 Mar ? 02:49:16 35° ESE 02:49:16 35° ESE 02:52:36 10° NE visible
17 Mar ? 04:25:56 17° W 04:28:24 32° NW 04:31:56 10° NNE visible
18 Mar ? 02:59:16 60° E 02:59:16 60° E 03:02:50 10° NE visible
18 Mar ? 04:35:55 12° W 04:38:39 22° NW 04:41:46 10° NNE visible
19 Mar ? 03:09:11 75° NNW 03:09:11 75° NNW 03:12:54 10° NE visible
19 Mar ? 04:46:26 10° WNW 04:48:59 16° NNW 04:51:31 10° NNE visible
20 Mar ? 01:42:23 14° ENE 01:42:23 14° ENE 01:43:05 10° ENE visible
20 Mar ? 03:19:02 46° NW 03:19:06 46° NW 03:22:51 10° NNE visible
21 Mar ? 01:52:11 19° ENE 01:52:11 19° ENE 01:53:29 10° NE visible
21 Mar ? 03:28:50 29° NW 03:29:16 30° NW 03:32:43 10° NNE visible
22 Mar ? 02:01:56 25° NE 02:01:56 25° NE 02:03:39 10° NE visible
22 Mar ? 03:38:35 19° NW 03:39:31 21° NNW 03:42:31 10° NNE visible
